Year,Month,Day,Hour,Minute,Value (Times are PST for temperature in C)
2013,09,21,00,00,13.10
2013,09,21,00,01,13.10
2013,09,21,00,02,13.10
2013,09,21,00,03,13.10
2013,09,21,00,04,13.10
2013,09,21,00,05,13.10
2013,09,21,00,06,13.10
2013,09,21,00,07,13.10
2013,09,21,00,08,13.10
2013,09,21,00,09,13.10
2013,09,21,00,10,13.00
2013,09,21,00,11,13.00
2013,09,21,00,12,13.00
2013,09,21,00,13,13.00
2013,09,21,00,14,13.00
2013,09,21,00,15,13.00
2013,09,21,00,16,13.00
2013,09,21,00,17,13.00
2013,09,21,00,18,13.00
2013,09,21,00,19,13.00
2013,09,21,00,20,12.90
2013,09,21,00,21,12.90
2013,09,21,00,22,12.90
2013,09,21,00,23,12.90
2013,09,21,00,24,12.90
2013,09,21,00,25,12.90
2013,09,21,00,26,12.90
2013,09,21,00,27,12.90
2013,09,21,00,28,12.90
2013,09,21,00,29,12.90
2013,09,21,00,30,12.90
2013,09,21,00,31,12.90
2013,09,21,00,32,12.90
2013,09,21,00,33,12.90
2013,09,21,00,34,12.90
2013,09,21,00,35,12.90
2013,09,21,00,36,12.90
2013,09,21,00,37,12.90
2013,09,21,00,38,12.90
2013,09,21,00,39,12.90
2013,09,21,00,40,12.90
2013,09,21,00,41,12.90
2013,09,21,00,42,12.90
2013,09,21,00,43,12.90
2013,09,21,00,44,12.90
2013,09,21,00,45,12.90
2013,09,21,00,46,12.90
2013,09,21,00,47,12.90
2013,09,21,00,48,12.90
2013,09,21,00,49,12.90
2013,09,21,00,50,12.90
2013,09,21,00,51,12.90
2013,09,21,00,52,12.90
2013,09,21,00,53,12.90
2013,09,21,00,54,12.90
2013,09,21,00,55,12.90
2013,09,21,00,56,12.90
2013,09,21,00,57,12.90
2013,09,21,00,58,12.90
2013,09,21,00,59,12.90
2013,09,21,01,00,12.90
2013,09,21,01,01,12.90
2013,09,21,01,02,12.90
2013,09,21,01,03,12.90
2013,09,21,01,04,12.90
2013,09,21,01,05,12.90
2013,09,21,01,06,12.90
2013,09,21,01,07,12.90
2013,09,21,01,08,12.90
2013,09,21,01,09,12.90
2013,09,21,01,10,12.90
2013,09,21,01,11,12.90
2013,09,21,01,12,12.90
2013,09,21,01,13,12.90
2013,09,21,01,14,12.90
2013,09,21,01,15,12.90
2013,09,21,01,16,12.90
2013,09,21,01,17,13.00
2013,09,21,01,18,13.00
2013,09,21,01,19,13.00
2013,09,21,01,20,13.00
2013,09,21,01,21,12.90
2013,09,21,01,22,12.90
2013,09,21,01,23,12.90
2013,09,21,01,24,12.90
2013,09,21,01,25,12.90
2013,09,21,01,26,12.90
2013,09,21,01,27,12.90
2013,09,21,01,28,12.90
2013,09,21,01,29,12.80
2013,09,21,01,30,12.80
2013,09,21,01,31,12.80
2013,09,21,01,32,12.80
2013,09,21,01,33,12.80
2013,09,21,01,34,12.80
2013,09,21,01,35,12.80
2013,09,21,01,36,12.80
2013,09,21,01,37,12.80
2013,09,21,01,38,12.80
2013,09,21,01,39,12.80
2013,09,21,01,40,12.80
2013,09,21,01,41,12.80
2013,09,21,01,42,12.70
2013,09,21,01,43,12.70
2013,09,21,01,44,12.70
2013,09,21,01,45,12.70
2013,09,21,01,46,12.70
2013,09,21,01,47,12.70
2013,09,21,01,48,12.70
2013,09,21,01,49,12.70
2013,09,21,01,50,12.70
2013,09,21,01,51,12.70
2013,09,21,01,52,12.70
2013,09,21,01,53,12.60
2013,09,21,01,54,12.60
2013,09,21,01,55,12.60
2013,09,21,01,56,12.60
2013,09,21,01,57,12.60
2013,09,21,01,58,12.50
2013,09,21,01,59,12.50
2013,09,21,02,00,12.50
2013,09,21,02,01,12.50
2013,09,21,02,02,12.40
2013,09,21,02,03,12.40
2013,09,21,02,04,12.40
2013,09,21,02,05,12.40
2013,09,21,02,06,12.40
2013,09,21,02,07,12.40
2013,09,21,02,08,12.40
2013,09,21,02,09,12.30
2013,09,21,02,10,12.30
2013,09,21,02,11,12.30
2013,09,21,02,12,12.30
2013,09,21,02,13,12.30
2013,09,21,02,14,12.30
2013,09,21,02,15,12.30
2013,09,21,02,16,12.30
2013,09,21,02,17,12.30
2013,09,21,02,18,12.40
2013,09,21,02,19,12.40
2013,09,21,02,20,12.40
2013,09,21,02,21,12.40
2013,09,21,02,22,12.30
2013,09,21,02,23,12.30
2013,09,21,02,24,12.30
2013,09,21,02,25,12.30
2013,09,21,02,26,12.30
2013,09,21,02,27,12.30
2013,09,21,02,28,12.30
2013,09,21,02,29,12.30
2013,09,21,02,30,12.40
2013,09,21,02,31,12.40
2013,09,21,02,32,12.40
2013,09,21,02,33,12.40
2013,09,21,02,34,12.40
2013,09,21,02,35,12.40
2013,09,21,02,36,12.40
2013,09,21,02,37,12.40
2013,09,21,02,38,12.40
2013,09,21,02,39,12.40
2013,09,21,02,40,12.40
2013,09,21,02,41,12.40
2013,09,21,02,42,12.40
2013,09,21,02,43,12.40
2013,09,21,02,44,12.40
2013,09,21,02,45,12.40
2013,09,21,02,46,12.50
2013,09,21,02,47,12.40
2013,09,21,02,48,12.50
2013,09,21,02,49,12.50
2013,09,21,02,50,12.50
2013,09,21,02,51,12.50
2013,09,21,02,52,12.50
2013,09,21,02,53,12.50
2013,09,21,02,54,12.50
2013,09,21,02,55,12.50
2013,09,21,02,56,12.50
2013,09,21,02,57,12.50
2013,09,21,02,58,12.50
2013,09,21,02,59,12.60
2013,09,21,03,00,12.50
2013,09,21,03,01,12.60
2013,09,21,03,02,12.60
2013,09,21,03,03,12.60
2013,09,21,03,04,12.60
2013,09,21,03,05,12.60
2013,09,21,03,06,12.70
2013,09,21,03,07,12.70
2013,09,21,03,08,12.70
2013,09,21,03,09,12.70
2013,09,21,03,10,12.70
2013,09,21,03,11,12.70
2013,09,21,03,12,12.80
2013,09,21,03,13,12.80
2013,09,21,03,14,12.80
2013,09,21,03,15,12.80
2013,09,21,03,16,12.80
2013,09,21,03,17,12.80
2013,09,21,03,18,12.80
2013,09,21,03,19,12.80
2013,09,21,03,20,12.80
2013,09,21,03,21,12.80
2013,09,21,03,22,12.80
2013,09,21,03,23,12.80
2013,09,21,03,24,12.80
2013,09,21,03,25,12.80
2013,09,21,03,26,12.80
2013,09,21,03,27,12.80
2013,09,21,03,28,12.80
2013,09,21,03,29,12.80
2013,09,21,03,30,12.80
2013,09,21,03,31,12.80
2013,09,21,03,32,12.80
2013,09,21,03,33,12.80
2013,09,21,03,34,12.80
2013,09,21,03,35,12.90
2013,09,21,03,36,12.90
2013,09,21,03,37,12.90
2013,09,21,03,38,12.80
2013,09,21,03,39,12.80
2013,09,21,03,40,12.80
2013,09,21,03,41,12.80
2013,09,21,03,42,12.80
2013,09,21,03,43,12.80
2013,09,21,03,44,12.80
2013,09,21,03,45,12.80
2013,09,21,03,46,12.80
2013,09,21,03,47,12.80
2013,09,21,03,48,12.80
2013,09,21,03,49,12.80
2013,09,21,03,50,12.80
2013,09,21,03,51,12.80
2013,09,21,03,52,12.80
2013,09,21,03,53,12.80
2013,09,21,03,54,12.80
2013,09,21,03,55,12.80
2013,09,21,03,56,12.80
2013,09,21,03,57,12.80
2013,09,21,03,58,12.80
2013,09,21,03,59,12.80
2013,09,21,04,00,12.80
2013,09,21,04,01,12.80
2013,09,21,04,02,12.80
2013,09,21,04,03,12.80
2013,09,21,04,04,12.80
2013,09,21,04,05,12.80
2013,09,21,04,06,12.80
2013,09,21,04,07,12.80
2013,09,21,04,08,12.80
2013,09,21,04,09,12.80
2013,09,21,04,10,12.80
2013,09,21,04,11,12.80
2013,09,21,04,12,12.80
2013,09,21,04,13,12.80
2013,09,21,04,14,12.80
2013,09,21,04,15,12.80
2013,09,21,04,16,12.80
2013,09,21,04,17,12.80
2013,09,21,04,18,12.80
2013,09,21,04,19,12.80
2013,09,21,04,20,12.80
2013,09,21,04,21,12.80
2013,09,21,04,22,12.80
2013,09,21,04,23,12.80
2013,09,21,04,24,12.80
2013,09,21,04,25,12.80
2013,09,21,04,26,12.80
2013,09,21,04,27,12.80
2013,09,21,04,28,12.80
2013,09,21,04,29,12.80
2013,09,21,04,30,12.80
2013,09,21,04,31,12.80
2013,09,21,04,32,12.80
2013,09,21,04,33,12.80
2013,09,21,04,34,12.70
2013,09,21,04,35,12.70
2013,09,21,04,36,12.70
2013,09,21,04,37,12.70
2013,09,21,04,38,12.70
2013,09,21,04,39,12.70
2013,09,21,04,40,12.70
2013,09,21,04,41,12.70
2013,09,21,04,42,12.70
2013,09,21,04,43,12.70
2013,09,21,04,44,12.70
2013,09,21,04,45,12.70
2013,09,21,04,46,12.70
2013,09,21,04,47,12.60
2013,09,21,04,48,12.60
2013,09,21,04,49,12.60
2013,09,21,04,50,12.60
2013,09,21,04,51,12.60
2013,09,21,04,52,12.60
2013,09,21,04,53,12.60
2013,09,21,04,54,12.60
2013,09,21,04,55,12.60
2013,09,21,04,56,12.60
2013,09,21,04,57,12.60
2013,09,21,04,58,12.60
2013,09,21,04,59,12.50
2013,09,21,05,00,12.50
2013,09,21,05,01,12.50
2013,09,21,05,02,12.50
2013,09,21,05,03,12.50
2013,09,21,05,04,12.50
2013,09,21,05,05,12.50
2013,09,21,05,06,12.40
2013,09,21,05,07,12.40
2013,09,21,05,08,12.40
2013,09,21,05,09,12.40
2013,09,21,05,10,12.40
2013,09,21,05,11,12.40
2013,09,21,05,12,12.40
2013,09,21,05,13,12.40
2013,09,21,05,14,12.40
2013,09,21,05,15,12.30
2013,09,21,05,16,12.30
2013,09,21,05,17,12.30
2013,09,21,05,18,12.30
2013,09,21,05,19,12.30
2013,09,21,05,20,12.30
2013,09,21,05,21,12.30
2013,09,21,05,22,12.30
2013,09,21,05,23,12.30
2013,09,21,05,24,12.30
2013,09,21,05,25,12.30
2013,09,21,05,26,12.30
2013,09,21,05,27,12.30
2013,09,21,05,28,12.30
2013,09,21,05,29,12.30
2013,09,21,05,30,12.30
2013,09,21,05,31,12.30
2013,09,21,05,32,12.30
2013,09,21,05,33,12.30
2013,09,21,05,34,12.30
2013,09,21,05,35,12.30
2013,09,21,05,36,12.30
2013,09,21,05,37,12.30
2013,09,21,05,38,12.30
2013,09,21,05,39,12.30
2013,09,21,05,40,12.30
2013,09,21,05,41,12.30
2013,09,21,05,42,12.30
2013,09,21,05,43,12.30
2013,09,21,05,44,12.30
2013,09,21,05,45,12.30
2013,09,21,05,46,12.30
2013,09,21,05,47,12.30
2013,09,21,05,48,12.30
2013,09,21,05,49,12.20
2013,09,21,05,50,12.20
2013,09,21,05,51,12.20
2013,09,21,05,52,12.20
2013,09,21,05,53,12.20
2013,09,21,05,54,12.20
2013,09,21,05,55,12.20
2013,09,21,05,56,12.20
2013,09,21,05,57,12.20
2013,09,21,05,58,12.20
2013,09,21,05,59,12.20
2013,09,21,06,00,12.20
2013,09,21,06,01,12.20
2013,09,21,06,02,12.20
2013,09,21,06,03,12.20
2013,09,21,06,04,12.20
2013,09,21,06,05,12.20
2013,09,21,06,06,12.20
2013,09,21,06,07,12.20
2013,09,21,06,08,12.20
2013,09,21,06,09,12.20
2013,09,21,06,10,12.20
2013,09,21,06,11,12.20
2013,09,21,06,12,12.20
2013,09,21,06,13,12.20
2013,09,21,06,14,12.20
2013,09,21,06,15,12.20
2013,09,21,06,16,12.20
2013,09,21,06,17,12.20
2013,09,21,06,18,12.20
2013,09,21,06,19,12.20
2013,09,21,06,20,12.20
2013,09,21,06,21,12.20
2013,09,21,06,22,12.20
2013,09,21,06,23,12.20
2013,09,21,06,24,12.20
2013,09,21,06,25,12.20
2013,09,21,06,26,12.20
2013,09,21,06,27,12.20
2013,09,21,06,28,12.20
2013,09,21,06,29,12.20
2013,09,21,06,30,12.20
2013,09,21,06,31,12.20
2013,09,21,06,32,12.20
2013,09,21,06,33,12.20
2013,09,21,06,34,12.20
2013,09,21,06,35,12.20
2013,09,21,06,36,12.20
2013,09,21,06,37,12.20
2013,09,21,06,38,12.20
2013,09,21,06,39,12.20
2013,09,21,06,40,12.20
2013,09,21,06,41,12.20
2013,09,21,06,42,12.20
2013,09,21,06,43,12.20
2013,09,21,06,44,12.20
2013,09,21,06,45,12.20
2013,09,21,06,46,12.20
2013,09,21,06,47,12.20
2013,09,21,06,48,12.20
2013,09,21,06,49,12.20
2013,09,21,06,50,12.20
2013,09,21,06,51,12.20
2013,09,21,06,52,12.20
2013,09,21,06,53,12.20
2013,09,21,06,54,12.20
2013,09,21,06,55,12.20
2013,09,21,06,56,12.20
2013,09,21,06,57,12.20
2013,09,21,06,58,12.20
2013,09,21,06,59,12.20
2013,09,21,07,00,12.20
2013,09,21,07,01,12.20
2013,09,21,07,02,12.20
2013,09,21,07,03,12.20
2013,09,21,07,04,12.10
2013,09,21,07,05,12.10
2013,09,21,07,06,12.10
2013,09,21,07,07,12.10
2013,09,21,07,08,12.10
2013,09,21,07,09,12.10
2013,09,21,07,10,12.00
2013,09,21,07,11,12.00
2013,09,21,07,12,12.00
2013,09,21,07,13,11.90
2013,09,21,07,14,11.90
2013,09,21,07,15,11.90
2013,09,21,07,16,11.90
2013,09,21,07,17,11.80
2013,09,21,07,18,11.80
2013,09,21,07,19,11.80
2013,09,21,07,20,11.70
2013,09,21,07,21,11.70
2013,09,21,07,22,11.70
2013,09,21,07,23,11.70
2013,09,21,07,24,11.60
2013,09,21,07,25,11.60
2013,09,21,07,26,11.60
2013,09,21,07,27,11.60
2013,09,21,07,28,11.60
2013,09,21,07,29,11.50
2013,09,21,07,30,11.50
2013,09,21,07,31,11.50
2013,09,21,07,32,11.50
2013,09,21,07,33,11.50
2013,09,21,07,34,11.40
2013,09,21,07,35,11.40
2013,09,21,07,36,11.40
2013,09,21,07,37,11.40
2013,09,21,07,38,11.40
2013,09,21,07,39,11.30
2013,09,21,07,40,11.30
2013,09,21,07,41,11.30
2013,09,21,07,42,11.30
2013,09,21,07,43,11.30
2013,09,21,07,44,11.30
2013,09,21,07,45,11.20
2013,09,21,07,46,11.20
2013,09,21,07,47,11.20
2013,09,21,07,48,11.20
2013,09,21,07,49,11.10
2013,09,21,07,50,11.10
2013,09,21,07,51,11.10
2013,09,21,07,52,11.10
2013,09,21,07,53,11.10
2013,09,21,07,54,11.10
2013,09,21,07,55,11.10
2013,09,21,07,56,11.10
2013,09,21,07,57,11.10
2013,09,21,07,58,11.10
2013,09,21,07,59,11.10
2013,09,21,08,00,11.10
2013,09,21,08,01,11.10
2013,09,21,08,02,11.10
2013,09,21,08,03,11.10
2013,09,21,08,04,11.00
2013,09,21,08,05,11.00
2013,09,21,08,06,11.00
2013,09,21,08,07,11.00
2013,09,21,08,08,11.00
2013,09,21,08,09,11.00
2013,09,21,08,10,11.00
2013,09,21,08,11,11.00
2013,09,21,08,12,11.00
2013,09,21,08,13,11.00
2013,09,21,08,14,11.00
2013,09,21,08,15,11.00
2013,09,21,08,16,11.00
2013,09,21,08,17,11.00
2013,09,21,08,18,11.00
2013,09,21,08,19,11.00
2013,09,21,08,20,11.00
2013,09,21,08,21,11.00
2013,09,21,08,22,11.10
2013,09,21,08,23,11.10
2013,09,21,08,24,11.10
2013,09,21,08,25,11.10
2013,09,21,08,26,11.20
2013,09,21,08,27,11.20
2013,09,21,08,28,11.20
2013,09,21,08,29,11.20
2013,09,21,08,30,11.30
2013,09,21,08,31,11.30
2013,09,21,08,32,11.30
2013,09,21,08,33,11.30
2013,09,21,08,34,11.40
2013,09,21,08,35,11.40
2013,09,21,08,36,11.30
2013,09,21,08,37,11.40
2013,09,21,08,38,11.40
2013,09,21,08,39,11.40
2013,09,21,08,40,11.30
2013,09,21,08,41,11.30
2013,09,21,08,42,11.30
2013,09,21,08,43,11.30
2013,09,21,08,44,11.30
2013,09,21,08,45,11.30
2013,09,21,08,46,11.30
2013,09,21,08,47,11.30
2013,09,21,08,48,11.40
2013,09,21,08,49,11.40
2013,09,21,08,50,11.40
2013,09,21,08,51,11.40
2013,09,21,08,52,11.50
2013,09,21,08,53,11.60
2013,09,21,08,54,11.60
2013,09,21,08,55,11.60
2013,09,21,08,56,11.70
2013,09,21,08,57,11.70
2013,09,21,08,58,11.70
2013,09,21,08,59,11.70
2013,09,21,09,00,11.60
2013,09,21,09,01,11.60
2013,09,21,09,02,11.60
2013,09,21,09,03,11.60
2013,09,21,09,04,11.60
2013,09,21,09,05,11.60
2013,09,21,09,06,11.60
2013,09,21,09,07,11.60
2013,09,21,09,08,11.60
2013,09,21,09,09,11.60
2013,09,21,09,10,11.60
2013,09,21,09,11,11.60
2013,09,21,09,12,11.60
2013,09,21,09,13,11.60
2013,09,21,09,14,11.60
2013,09,21,09,15,11.50
2013,09,21,09,16,11.60
2013,09,21,09,17,11.60
2013,09,21,09,18,11.60
2013,09,21,09,19,11.60
2013,09,21,09,20,11.70
2013,09,21,09,21,11.70
2013,09,21,09,22,11.70
2013,09,21,09,23,11.70
2013,09,21,09,24,11.70
2013,09,21,09,25,11.70
2013,09,21,09,26,11.70
2013,09,21,09,27,11.70
2013,09,21,09,28,11.70
2013,09,21,09,29,11.80
2013,09,21,09,30,11.80
2013,09,21,09,31,11.80
2013,09,21,09,32,11.90
2013,09,21,09,33,11.90
2013,09,21,09,34,11.90
2013,09,21,09,35,11.90
2013,09,21,09,36,12.00
2013,09,21,09,37,12.00
2013,09,21,09,38,12.10
2013,09,21,09,39,12.20
2013,09,21,09,40,12.20
2013,09,21,09,41,12.10
2013,09,21,09,42,12.10
2013,09,21,09,43,12.10
2013,09,21,09,44,12.10
2013,09,21,09,45,12.20
2013,09,21,09,46,12.20
2013,09,21,09,47,12.20
2013,09,21,09,48,12.20
2013,09,21,09,49,12.30
2013,09,21,09,50,12.20
2013,09,21,09,51,12.20
2013,09,21,09,52,12.20
2013,09,21,09,53,12.20
2013,09,21,09,54,12.20
2013,09,21,09,55,12.20
2013,09,21,09,56,12.20
2013,09,21,09,57,12.30
2013,09,21,09,58,12.40
2013,09,21,09,59,12.40
2013,09,21,10,00,12.40
2013,09,21,10,01,12.30
2013,09,21,10,02,12.30
2013,09,21,10,03,12.30
2013,09,21,10,04,12.30
2013,09,21,10,05,12.30
2013,09,21,10,06,12.30
2013,09,21,10,07,12.30
2013,09,21,10,08,12.40
2013,09,21,10,09,12.40
2013,09,21,10,10,12.50
2013,09,21,10,11,12.50
2013,09,21,10,12,12.50
2013,09,21,10,13,12.60
2013,09,21,10,14,12.60
2013,09,21,10,15,12.70
2013,09,21,10,16,12.70
2013,09,21,10,17,12.70
2013,09,21,10,18,12.70
2013,09,21,10,19,12.70
2013,09,21,10,20,12.80
2013,09,21,10,21,12.70
2013,09,21,10,22,12.80
2013,09,21,10,23,12.80
2013,09,21,10,24,12.80
2013,09,21,10,25,12.80
2013,09,21,10,26,12.80
2013,09,21,10,27,12.80
2013,09,21,10,28,12.80
2013,09,21,10,29,12.90
2013,09,21,10,30,12.90
2013,09,21,10,31,13.00
2013,09,21,10,32,13.00
2013,09,21,10,33,13.10
2013,09,21,10,34,13.20
2013,09,21,10,35,13.20
2013,09,21,10,36,13.20
2013,09,21,10,37,13.20
2013,09,21,10,38,13.20
2013,09,21,10,39,13.20
2013,09,21,10,40,13.30
2013,09,21,10,41,13.40
2013,09,21,10,42,13.50
2013,09,21,10,43,13.50
2013,09,21,10,44,13.40
2013,09,21,10,45,13.40
2013,09,21,10,46,13.30
2013,09,21,10,47,13.30
2013,09,21,10,48,13.30
2013,09,21,10,49,13.30
2013,09,21,10,50,13.30
2013,09,21,10,51,13.30
2013,09,21,10,52,13.30
2013,09,21,10,53,13.30
2013,09,21,10,54,13.40
2013,09,21,10,55,13.40
2013,09,21,10,56,13.50
2013,09,21,10,57,13.60
2013,09,21,10,58,13.70
2013,09,21,10,59,13.70
2013,09,21,11,00,13.80
2013,09,21,11,01,13.90
2013,09,21,11,02,13.90
2013,09,21,11,03,13.90
2013,09,21,11,04,13.90
2013,09,21,11,05,13.90
2013,09,21,11,06,13.90
2013,09,21,11,07,13.90
2013,09,21,11,08,13.90
2013,09,21,11,09,14.00
2013,09,21,11,10,14.10
2013,09,21,11,11,14.10
2013,09,21,11,12,14.10
2013,09,21,11,13,14.10
2013,09,21,11,14,14.10
2013,09,21,11,15,14.20
2013,09,21,11,16,14.20
2013,09,21,11,17,14.20
2013,09,21,11,18,14.30
2013,09,21,11,19,14.30
2013,09,21,11,20,14.40
2013,09,21,11,21,14.50
2013,09,21,11,22,14.50
2013,09,21,11,23,14.60
2013,09,21,11,24,14.70
2013,09,21,11,25,14.70
2013,09,21,11,26,14.80
2013,09,21,11,27,14.80
2013,09,21,11,28,14.90
2013,09,21,11,29,14.90
2013,09,21,11,30,15.00
2013,09,21,11,31,15.10
2013,09,21,11,32,15.20
2013,09,21,11,33,15.30
2013,09,21,11,34,15.30
2013,09,21,11,35,15.30
2013,09,21,11,36,15.30
2013,09,21,11,37,15.30
2013,09,21,11,38,15.20
2013,09,21,11,39,15.20
2013,09,21,11,40,15.20
2013,09,21,11,41,15.20
2013,09,21,11,42,15.30
2013,09,21,11,43,15.30
2013,09,21,11,44,15.20
2013,09,21,11,45,15.10
2013,09,21,11,46,15.10
2013,09,21,11,47,15.00
2013,09,21,11,48,15.00
2013,09,21,11,49,15.10
2013,09,21,11,50,15.10
2013,09,21,11,51,15.20
2013,09,21,11,52,15.20
2013,09,21,11,53,15.30
2013,09,21,11,54,15.30
2013,09,21,11,55,15.30
2013,09,21,11,56,15.20
2013,09,21,11,57,15.20
2013,09,21,11,58,15.10
2013,09,21,11,59,15.10
2013,09,21,12,00,15.00
2013,09,21,12,01,15.00
2013,09,21,12,02,15.10
2013,09,21,12,03,15.10
2013,09,21,12,04,15.10
2013,09,21,12,05,15.10
2013,09,21,12,06,15.10
2013,09,21,12,07,15.20
2013,09,21,12,08,15.20
2013,09,21,12,09,15.20
2013,09,21,12,10,15.20
2013,09,21,12,11,15.20
2013,09,21,12,12,15.20
2013,09,21,12,13,15.20
2013,09,21,12,14,15.20
2013,09,21,12,15,15.30
2013,09,21,12,16,15.40
2013,09,21,12,17,15.50
2013,09,21,12,18,15.60
2013,09,21,12,19,15.70
2013,09,21,12,20,15.90
2013,09,21,12,21,16.00
2013,09,21,12,22,16.00
2013,09,21,12,23,16.00
2013,09,21,12,24,16.00
2013,09,21,12,25,15.80
2013,09,21,12,26,15.70
2013,09,21,12,27,15.60
2013,09,21,12,28,15.50
2013,09,21,12,29,15.40
2013,09,21,12,30,15.40
2013,09,21,12,31,15.30
2013,09,21,12,32,15.30
2013,09,21,12,33,15.20
2013,09,21,12,34,15.20
2013,09,21,12,35,15.20
2013,09,21,12,36,15.10
2013,09,21,12,37,15.10
2013,09,21,12,38,15.10
2013,09,21,12,39,15.00
2013,09,21,12,40,15.00
2013,09,21,12,41,15.00
2013,09,21,12,42,14.90
2013,09,21,12,43,14.90
2013,09,21,12,44,14.90
2013,09,21,12,45,14.90
2013,09,21,12,46,14.90
2013,09,21,12,47,14.90
2013,09,21,12,48,14.90
2013,09,21,12,49,14.80
2013,09,21,12,50,14.80
2013,09,21,12,51,14.70
2013,09,21,12,52,14.70
2013,09,21,12,53,14.70
2013,09,21,12,54,14.70
2013,09,21,12,55,14.70
2013,09,21,12,56,14.70
2013,09,21,12,57,14.70
2013,09,21,12,58,14.80
2013,09,21,12,59,14.80
2013,09,21,13,00,14.90
2013,09,21,13,01,14.90
2013,09,21,13,02,15.00
2013,09,21,13,03,15.00
2013,09,21,13,04,15.10
2013,09,21,13,05,15.20
2013,09,21,13,06,15.30
2013,09,21,13,07,15.40
2013,09,21,13,08,15.50
2013,09,21,13,09,15.70
2013,09,21,13,10,15.90
2013,09,21,13,11,16.00
2013,09,21,13,12,16.00
2013,09,21,13,13,16.10
2013,09,21,13,14,16.10
2013,09,21,13,15,16.20
2013,09,21,13,16,16.20
2013,09,21,13,17,16.30
2013,09,21,13,18,16.40
2013,09,21,13,19,16.40
2013,09,21,13,20,16.40
2013,09,21,13,21,16.60
2013,09,21,13,22,16.80
2013,09,21,13,23,16.90
2013,09,21,13,24,16.90
2013,09,21,13,25,17.00
2013,09,21,13,26,17.00
2013,09,21,13,27,17.10
2013,09,21,13,28,17.00
2013,09,21,13,29,17.00
2013,09,21,13,30,17.10
2013,09,21,13,31,17.10
2013,09,21,13,32,17.00
2013,09,21,13,33,17.00
2013,09,21,13,34,16.90
2013,09,21,13,35,16.90
2013,09,21,13,36,16.80
2013,09,21,13,37,16.80
2013,09,21,13,38,16.80
2013,09,21,13,39,16.70
2013,09,21,13,40,16.70
2013,09,21,13,41,16.60
2013,09,21,13,42,16.60
2013,09,21,13,43,16.60
2013,09,21,13,44,16.60
2013,09,21,13,45,16.50
2013,09,21,13,46,16.50
2013,09,21,13,47,16.40
2013,09,21,13,48,16.40
2013,09,21,13,49,16.30
2013,09,21,13,50,16.30
2013,09,21,13,51,16.30
2013,09,21,13,52,16.30
2013,09,21,13,53,16.30
2013,09,21,13,54,16.40
2013,09,21,13,55,16.40
2013,09,21,13,56,16.40
2013,09,21,13,57,16.40
2013,09,21,13,58,16.50
2013,09,21,13,59,16.40
2013,09,21,14,00,16.40
2013,09,21,14,01,16.50
2013,09,21,14,02,16.60
2013,09,21,14,03,16.60
2013,09,21,14,04,16.60
2013,09,21,14,05,16.60
2013,09,21,14,06,16.60
2013,09,21,14,07,16.60
2013,09,21,14,08,16.60
2013,09,21,14,09,16.60
2013,09,21,14,10,16.50
2013,09,21,14,11,16.50
2013,09,21,14,12,16.50
2013,09,21,14,13,16.40
2013,09,21,14,14,16.30
2013,09,21,14,15,16.40
2013,09,21,14,16,16.40
2013,09,21,14,17,16.50
2013,09,21,14,18,16.60
2013,09,21,14,19,16.60
2013,09,21,14,20,16.60
2013,09,21,14,21,16.60
2013,09,21,14,22,16.60
2013,09,21,14,23,16.60
2013,09,21,14,24,16.60
2013,09,21,14,25,16.50
2013,09,21,14,26,16.50
2013,09,21,14,27,16.50
2013,09,21,14,28,16.60
2013,09,21,14,29,16.60
2013,09,21,14,30,16.80
2013,09,21,14,31,16.80
2013,09,21,14,32,16.80
2013,09,21,14,33,16.80
2013,09,21,14,34,16.70
2013,09,21,14,35,16.70
2013,09,21,14,36,16.70
2013,09,21,14,37,16.60
2013,09,21,14,38,16.60
2013,09,21,14,39,16.70
2013,09,21,14,40,16.80
2013,09,21,14,41,16.90
2013,09,21,14,42,17.00
2013,09,21,14,43,17.10
2013,09,21,14,44,17.00
2013,09,21,14,45,16.90
2013,09,21,14,46,16.80
2013,09,21,14,47,16.70
2013,09,21,14,48,16.70
2013,09,21,14,49,16.70
2013,09,21,14,50,16.80
2013,09,21,14,51,16.80
2013,09,21,14,52,16.90
2013,09,21,14,53,17.00
2013,09,21,14,54,17.00
2013,09,21,14,55,17.10
2013,09,21,14,56,17.20
2013,09,21,14,57,17.10
2013,09,21,14,58,17.00
2013,09,21,14,59,16.90
2013,09,21,15,00,16.90
2013,09,21,15,01,17.00
2013,09,21,15,02,17.00
2013,09,21,15,03,17.10
2013,09,21,15,04,17.10
2013,09,21,15,05,17.00
2013,09,21,15,06,16.90
2013,09,21,15,07,16.90
2013,09,21,15,08,16.90
2013,09,21,15,09,16.90
2013,09,21,15,10,16.90
2013,09,21,15,11,16.90
2013,09,21,15,12,16.90
2013,09,21,15,13,16.80
2013,09,21,15,14,16.80
2013,09,21,15,15,16.80
2013,09,21,15,16,16.70
2013,09,21,15,17,16.70
2013,09,21,15,18,16.70
2013,09,21,15,19,16.70
2013,09,21,15,20,16.70
2013,09,21,15,21,16.70
2013,09,21,15,22,16.70
2013,09,21,15,23,16.80
2013,09,21,15,24,16.80
2013,09,21,15,25,16.70
2013,09,21,15,26,16.70
2013,09,21,15,27,16.60
2013,09,21,15,28,16.50
2013,09,21,15,29,16.50
2013,09,21,15,30,16.50
2013,09,21,15,31,16.40
2013,09,21,15,32,16.40
2013,09,21,15,33,16.40
2013,09,21,15,34,16.60
2013,09,21,15,35,16.60
2013,09,21,15,36,16.70
2013,09,21,15,37,16.60
2013,09,21,15,38,16.60
2013,09,21,15,39,16.60
2013,09,21,15,40,16.70
2013,09,21,15,41,16.70
2013,09,21,15,42,16.80
2013,09,21,15,43,16.80
2013,09,21,15,44,16.80
2013,09,21,15,45,16.70
2013,09,21,15,46,16.60
2013,09,21,15,47,16.50
2013,09,21,15,48,16.40
2013,09,21,15,49,16.40
2013,09,21,15,50,16.40
2013,09,21,15,51,16.40
2013,09,21,15,52,16.30
2013,09,21,15,53,16.20
2013,09,21,15,54,16.10
2013,09,21,15,55,16.00
2013,09,21,15,56,16.00
2013,09,21,15,57,15.90
2013,09,21,15,58,15.80
2013,09,21,15,59,15.80
2013,09,21,16,00,15.80
2013,09,21,16,01,15.80
2013,09,21,16,02,15.80
2013,09,21,16,03,15.80
2013,09,21,16,04,15.90
2013,09,21,16,05,15.90
2013,09,21,16,06,16.00
2013,09,21,16,07,16.00
2013,09,21,16,08,16.00
2013,09,21,16,09,16.00
2013,09,21,16,10,16.00
2013,09,21,16,11,16.00
2013,09,21,16,12,16.00
2013,09,21,16,13,15.90
2013,09,21,16,14,15.90
2013,09,21,16,15,15.90
2013,09,21,16,16,15.80
2013,09,21,16,17,15.80
2013,09,21,16,18,15.80
2013,09,21,16,19,15.80
2013,09,21,16,20,15.80
2013,09,21,16,21,15.80
2013,09,21,16,22,15.80
2013,09,21,16,23,15.80
2013,09,21,16,24,15.80
2013,09,21,16,25,15.80
2013,09,21,16,26,15.80
2013,09,21,16,27,15.90
2013,09,21,16,28,15.90
2013,09,21,16,29,16.00
2013,09,21,16,30,16.00
2013,09,21,16,31,16.10
2013,09,21,16,32,16.10
2013,09,21,16,33,16.10
2013,09,21,16,34,16.10
2013,09,21,16,35,16.20
2013,09,21,16,36,16.20
2013,09,21,16,37,16.20
2013,09,21,16,38,16.20
2013,09,21,16,39,16.20
2013,09,21,16,40,16.20
2013,09,21,16,41,16.20
2013,09,21,16,42,16.20
2013,09,21,16,43,16.20
2013,09,21,16,44,16.20
2013,09,21,16,45,16.10
2013,09,21,16,46,16.10
2013,09,21,16,47,16.10
2013,09,21,16,48,16.10
2013,09,21,16,49,16.00
2013,09,21,16,50,16.00
2013,09,21,16,51,16.00
2013,09,21,16,52,16.00
2013,09,21,16,53,16.00
2013,09,21,16,54,16.10
2013,09,21,16,55,16.10
2013,09,21,16,56,16.20
2013,09,21,16,57,16.30
2013,09,21,16,58,16.30
2013,09,21,16,59,16.40
2013,09,21,17,00,16.40
2013,09,21,17,01,16.50
2013,09,21,17,02,16.50
2013,09,21,17,03,16.60
2013,09,21,17,04,16.70
2013,09,21,17,05,16.70
2013,09,21,17,06,16.80
2013,09,21,17,07,16.90
2013,09,21,17,08,16.80
2013,09,21,17,09,16.80
2013,09,21,17,10,16.80
2013,09,21,17,11,16.70
2013,09,21,17,12,16.70
2013,09,21,17,13,16.70
2013,09,21,17,14,16.60
2013,09,21,17,15,16.60
2013,09,21,17,16,16.60
2013,09,21,17,17,16.60
2013,09,21,17,18,16.60
2013,09,21,17,19,16.50